This demonstration page uses our WeatherBlox Daily Observations layout. Learn more.

Left ArrowRight Arrow

39.92423, -83.80882

Hourly Observations for December 11, 2015

Temp ( °F °C ) Dew Point ( °F °C ) Humidity (%) Winds ( mph kmh ) Pressure ( in mb ) Visibility ( mi km ) Precip ( " mm )
12:44 am 00:44 Mostly Cloudy 48 9 46 8 94 94 SSW 14 22 29.77 1008 10 16.0934 0 0
12:56 am 00:56 Cloudy 49 9.4 47 8.3 93 93 SSW 14 22 29.78 1008 10 16.0934 0 0
1:56 am 01:56 Cloudy 50 10 48 8.8 92 92 SSW 13 20 29.78 1008 10 16.0934 0 0
2:06 am 02:06 Cloudy 50 10 48 9 94 94 SSW 15 24 29.77 1008 10 16.0934 0 0
2:56 am 02:56 Mostly Cloudy 50 10 48 8.8 92 92 SSW 10 17 29.8 1009 10 16.0934 0 0
3:56 am 03:56 Cloudy 50 10 49 9.4 96 96 SSW 10 17 29.82 1010 8 12.87472 0 0
4:56 am 04:56 Mostly Cloudy 50 10 49 9.4 96 96 SW 10 17 29.83 1010 9 14.48406 0 0
5:56 am 05:56 Cloudy 50 10 48 8.8 92 92 SSW 9 15 29.85 1011 9 14.48406 0 0
6:13 am 06:13 Partly Cloudy 48 9 46 8 94 94 SSW 10 17 29.83 1010 9 14.48406 0 0
6:56 am 06:56 Clear 47 8.3 47 8.3 100 100 S 6 9 29.87 1011 7 11.26538 0 0
7:38 am 07:38 Mostly Cloudy with Mist and Fog 48 9 48 9 100 100 SSW 8 13 29.88 1012 6 9.65604 0 0
7:56 am 07:56 Cloudy with Mist and Fog 50 10 49 9.4 96 96 SSW 7 11 29.89 1012 6 9.65604 0 0
8:56 am 08:56 Cloudy with Mist and Fog 52 11.1 50 10 93 93 SSW 10 17 29.9 1013 5 8.0467 0 0
9:21 am 09:21 Cloudy with Mist and Fog 52 11 52 11 100 100 S 7 11 29.91 1013 5 8.0467 0 0
9:43 am 09:43 Cloudy with Mist and Fog 54 12 52 11 94 94 SSW 8 13 29.91 1013 4 6.43736 0 0
9:56 am 09:56 Cloudy with Mist and Fog 53 11.6 51 10.5 93 93 SSW 8 13 29.91 1013 5 8.0467 0 0
10:56 am 10:56 Cloudy with Mist and Fog 54 12.2 52 11.1 93 93 SW 10 17 29.93 1014 6 9.65604 0 0
11:14 am 11:14 Cloudy with Mist and Fog 55 13 52 11 88 88 SW 12 19 29.94 1014 6 9.65604 0 0
11:56 am 11:56 Mostly Cloudy 58 14.4 53 11.6 83 83 SW 14 22 29.92 1013 9 14.48406 0 0
12:05 pm 12:05 Mostly Cloudy 57 14 54 12 88 88 SW 10 17 29.91 1013 10 16.0934 0 0
12:56 pm 12:56 Cloudy 58 14.4 53 11.6 83 83 SSW 12 19 29.91 1013 10 16.0934 0 0
1:56 pm 13:56 Cloudy 58 14.4 53 11.6 83 83 SSW 12 19 29.93 1013 10 16.0934 0 0
2:56 pm 14:56 Cloudy 59 15 54 12.2 83 83 S 9 15 29.92 1013 10 16.0934 0 0
3:56 pm 15:56 Cloudy 59 15 54 12.2 83 83 S 7 11 29.92 1013 10 16.0934 0 0
4:56 pm 16:56 Cloudy 58 14.4 53 11.6 83 83 SSE 5 7 29.93 1013 10 16.0934 0 0
5:56 pm 17:56 Cloudy 56 13.3 53 11.6 90 90 E 5 7 29.93 1014 10 16.0934 0 0
6:56 pm 18:56 Cloudy 57 13.8 54 12.2 90 90 E 5 7 29.96 1015 10 16.0934 0 0
7:56 pm 19:56 Mostly Cloudy 55 12.7 53 11.6 93 93 SE 7 11 29.96 1015 10 16.0934 0 0
8:56 pm 20:56 Mostly Cloudy 57 13.8 54 12.2 90 90 SSE 7 11 29.97 1015 10 16.0934 0 0
9:56 pm 21:56 Cloudy 58 14.4 55 12.7 90 90 SSE 7 11 29.97 1015 10 16.0934 0 0
10:49 pm 22:49 Cloudy 57 14 55 13 94 94 SSE 8 13 29.97 1015 10 16.0934 0 0
10:56 pm 22:56 Cloudy 58 14.4 56 13.3 93 93 SSE 8 13 29.96 1015 10 16.0934 0 0
11:23 pm 23:23 Mostly Cloudy 57 14 55 13 94 94 SSE 7 11 29.97 1015 10 16.0934 0 0
11:56 pm 23:56 Mostly Clear 57 13.8 55 12.7 93 93 SSE 7 11 29.96 1014 10 16.0934 0 0

Powered by AerisWeather